Location: Ottawa
(45.4170°N, 75.7000°W)
Time: 00:15:14
(UTC-04:00)

ISS - Visible Passes

Search period start: 18 May 2021 00:00
Search period end: 28 May 2021 00:00
Orbit: 417 x 422 km, 51.6° (Epoch: 18 May)

Date Brightness Start Highest point End Pass type
(mag) Time Alt. Az. Time Alt. Az. Time Alt. Az.
18 May -1.9 01:32:32 10° NW 01:34:27 28° NW 01:34:27 28° NW visible
18 May -3.3 21:30:15 10° WSW 21:33:36 67° NNW 21:36:58 10° ENE visible
18 May -1.6 23:07:50 10° WNW 23:10:49 28° N 23:13:48 10° NE visible
19 May -2.1 00:45:05 10° NW 00:48:08 34° N 00:48:08 34° N visible
19 May -1.8 22:20:09 10° WNW 22:23:12 31° N 22:26:16 10° NE visible
19 May -1.8 23:57:35 10° NW 00:00:37 30° N 00:01:58 22° NE visible
20 May -1.1 01:34:22 10° WNW 01:34:54 14° WNW 01:34:54 14° WNW visible
20 May -2.1 21:32:27 10° W 21:35:37 37° NNW 21:38:47 10° NE visible
20 May -1.7 23:10:02 10° WNW 23:13:00 27° N 23:15:53 10° ENE visible
21 May -2.0 00:46:56 10° WNW 00:48:49 30° NW 00:48:49 30° NW visible
21 May -1.6 22:22:26 10° WNW 22:25:22 27° N 22:28:19 10° ENE visible
21 May -2.7 23:59:29 10° NW 00:02:43 43° NNE 00:02:47 43° NNE visible
22 May -1.7 21:34:46 10° WNW 21:37:44 28° N 21:40:43 10° NE visible
22 May -2.2 23:12:01 10° NW 23:15:09 34° NNE 23:16:46 21° ENE visible
23 May -1.3 00:48:47 10° WNW 00:49:42 17° WNW 00:49:42 17° WNW visible
23 May -1.9 22:24:30 10° NW 22:27:32 30° N 22:30:34 10° ENE visible
24 May -2.8 00:01:17 10° WNW 00:03:43 44° NW 00:03:43 44° NW visible
24 May -1.8 21:36:56 10° WNW 21:39:54 27° N 21:42:51 10° ENE visible
24 May -3.3 23:13:49 10° WNW 23:17:09 58° NNE 23:17:45 48° ENE visible
25 May -2.7 22:26:21 10° NW 22:29:36 43° NNE 22:31:49 18° E visible
26 May -1.8 00:03:14 10° WNW 00:04:46 23° W 00:04:46 23° W visible
26 May -2.3 21:38:53 10° NW 21:42:01 34° NNE 21:45:08 10° E visible
26 May -3.7 23:15:39 10° WNW 23:18:51 62° SW 23:18:51 62° SW visible
27 May -3.8 22:28:08 10° WNW 22:31:31 85° NNE 22:32:59 31° ESE visible
